Regional Weather Roundup
Issued by NWS Glasgow, MT

Home | Current Version | Previous Version | Text Only | Print | Product List | Glossary On
Versions: 1 2 3 4 5 6 7 8 9 10 11 12 13 14 15 16 17 18 19 20 21 22 23 24 25 26 27 28 29 30 31 32 33 34 35 36 37 38 39 40 41 42 43 44 45 46 47 48 49 50
000
ASUS45 KGGW 050715
RWRGGW
HOURLY REGIONAL WEATHER ROUNDUP FOR NORTHEAST MONTANA
NATIONAL WEATHER SERVICE GLASGOW MONTANA
100 AM MDT SAT SEP 05 2015

NOTE: "FAIR" INDICATES FEW OR NO CLOUDS BELOW 12,000 FEET WITH NO
SIGNIFICANT WEATHER AND/OR OBSTRUCTIONS TO VISISBILITY.

NORTHEAST MONTANA


CITY           SKY/WX    TMP DP  RH WIND       PRES   REMARKS
GLASGOW        CLOUDY    56  46  69 NE18      29.96F
PLENTYWOOD       N/A     57  48  72 NE14G22     N/A
WOLF POINT     CLOUDY    61  46  57 N10       29.97R
JORDAN           N/A     57  47  69 N16       29.94F
WINNETT          N/A     52  49  89 W8G18       N/A
SIDNEY         CLOUDY    63  57  82 W5          N/A  THUNDER
GLENDIVE       CLOUDY    61  61 100 NE13      29.89F
MALTA            N/A     51  49  92 NE9G28      N/A
SCOBEY           N/A     54  41  61 N14G20    29.97R
OPHEIM           N/A     46  45  93 N12       29.84R

FORT PECK REPORTS


CITY           SKY/WX    TMP DP  RH WIND       PRES   REMARKS
THE PINES        N/A     57  45  64 N12         N/A

SOUTHEAST MONTANA


CITY           SKY/WX    TMP DP  RH WIND       PRES   REMARKS
BILLINGS       MOCLDY    55  46  71 NE6       29.94S
MILES CITY     MOCLDY    63  57  81 N12       29.83F
BAKER          CLOUDY    62 N/A N/A NE15      29.85F
LIVINGSTON     LGT RAIN  52  47  83 E23       29.91F

CENTRAL MONTANA


CITY           SKY/WX    TMP DP  RH WIND       PRES   REMARKS
HAVRE          LGT RAIN  50  49  96 NE6       30.03F
LEWISTOWN      LGT RAIN  51  47  86 NE7       29.94F
GREAT FALLS    CLOUDY    49  48  97 NE15      29.95F
CUT BANK       LGT RAIN  44  43  96 N14       30.01F
HELENA         CLOUDY    48  45  89 NW8       29.93F
BUTTE          CLOUDY    45  43  93 N3        29.91F
BOZEMAN        CLOUDY    50  48  93 NW3       29.89F

WESTERN MONTANA


CITY           SKY/WX    TMP DP  RH WIND       PRES   REMARKS
MISSOULA       LGT RAIN  53  46  77 SE14      29.87S
KALISPELL      NOT AVBL

NORTH DAKOTA


CITY           SKY/WX    TMP DP  RH WIND       PRES   REMARKS
WILLISTON      CLOUDY    60  56  86 N16       29.91F
DICKINSON      RAIN      63  61  93 W18G32    29.97R FOG
MINOT          CLOUDY    61  59  93 N14       29.91R FOG
BISMARCK       CLEAR     69  66  90 NE7       29.84R

SOUTHERN SASKATCHEWAN


CITY           SKY/WX    TMP DP  RH WIND       PRES   REMARKS
REGINA         MOCLDY    50  46  87 N7        30.03
ESTEVAN        CLOUDY    55  54  94 NE16      29.98
SWIFT CURRENT  LGT RAIN  48  46  93 NE9       30.04F




USA.gov is the U.S. government's official web portal to all federal, state and local government web resources and services.